Location: Coffee Ditch
(40.9640°N, 122.7500°W)
Time: 06:38:06
(UTC+00:00)

SeaSat 1 - Pass Details

Date: 08 September 2024
Orbit: 739 x 742 km, 108.0° (Epoch: 05 October)

Event Time Altitude Azimuth Distance (km) Brightness Sun altitude
Rises 13:06:58 0° 200° (SSW) 3,162 5.4 -7.9°
Reaches altitude 10° 13:10:17 10° 224° (SW) 2,246 4.4 -7.3°
Maximum altitude 13:12:53 14° 257° (WSW) 1,964 4.0 -6.9°
Drops below altitude 10° 13:15:30 10° 289° (WNW) 2,256 4.4 -6.4°
Sets 13:18:52 0° 314° (NW) 3,187 5.4 -5.7°
